| time (UTC) | temp F | wind direction | speed knots | gust knots | rain 1hr in | rain 24hr in | rain mn in | humidity % | barometer mb |
| 20260504050436 | 41 | 224 | 0.0 | 0.9 | 0.00 | 0.24 | 0.00 | 96 | 1000.6 |
| 20260504045935 | 41 | 261 | 0.0 | 0.0 | 0.00 | 0.24 | 0.00 | 96 | 1000.6 |
| 20260504045708 | 41 | 262 | 0.0 | 0.0 | 0.00 | 0.24 | 0.00 | 96 | 1000.7 |
| 20260504044935 | 41 | 276 | 0.0 | 0.0 | 0.00 | 0.24 | 0.00 | 96 | 1000.7 |
| 20260504044435 | 41 | 275 | 0.0 | 0.0 | 0.00 | 0.24 | 0.00 | 96 | 1000.8 |
| 20260504043934 | 41 | 276 | 0.0 | 0.0 | 0.00 | 0.24 | 0.00 | 96 | 1000.8 |
| 20260504043201 | 41 | 329 | 0.0 | 0.9 | 0.00 | 0.24 | 0.00 | 96 | 1000.9 |
| 20260504042434 | 41 | 19 | 0.0 | 3.5 | 0.00 | 0.24 | 0.00 | 96 | 1001.0 |
| 20260504041935 | 41 | 24 | 0.9 | 3.5 | 0.00 | 0.24 | 0.00 | 96 | 1001.0 |
| 20260504041437 | 41 | 326 | 0.9 | 1.7 | 0.00 | 0.24 | 0.00 | 96 | 1000.9 |
| 20260504040933 | 41 | 252 | 0.0 | 0.0 | 0.00 | 0.24 | 0.00 | 96 | 1000.8 |
| 20260504040433 | 42 | 252 | 0.0 | 0.0 | 0.00 | 0.24 | 0.00 | 96 | 1000.9 |
| 20260504040208 | 42 | 290 | 0.0 | 0.9 | 0.00 | 0.24 | 0.24 | 96 | 1001.0 |
| 20260504035434 | 42 | 305 | 0.0 | 0.9 | 0.00 | 0.24 | 0.24 | 96 | 1001.1 |
| 20260504034935 | 43 | 28 | 0.0 | 0.0 | 0.00 | 0.24 | 0.24 | 96 | 1001.2 |
| 20260504034433 | 43 | 341 | 0.0 | 0.0 | 0.00 | 0.24 | 0.24 | 96 | 1001.2 |
| 20260504033933 | 43 | 272 | 0.0 | 1.7 | 0.00 | 0.24 | 0.24 | 96 | 1001.1 |
| 20260504033659 | 43 | 271 | 0.0 | 2.6 | 0.00 | 0.24 | 0.24 | 96 | 1001.2 |
| 20260504032931 | 43 | 275 | 0.9 | 2.6 | 0.00 | 0.24 | 0.24 | 96 | 1001.2 |
| 20260504032432 | 43 | 268 | 0.0 | 1.7 | 0.00 | 0.24 | 0.24 | 96 | 1001.4 |
| 20260504031934 | 43 | 245 | 0.0 | 0.9 | 0.00 | 0.24 | 0.24 | 96 | 1001.2 |
| 20260504031432 | 43 | 237 | 0.0 | 1.7 | 0.00 | 0.24 | 0.24 | 96 | 1001.2 |
| 20260504030932 | 43 | 237 | 0.9 | 1.7 | 0.00 | 0.24 | 0.24 | 96 | 1001.3 |
| 20260504030434 | 43 | 236 | 0.0 | 1.7 | 0.00 | 0.24 | 0.24 | 96 | 1001.3 |
| 20260504025932 | 43 | 149 | 0.0 | 2.6 | 0.00 | 0.24 | 0.24 | 96 | 1001.2 |
| 20260504025432 | 43 | 154 | 0.9 | 2.6 | 0.00 | 0.24 | 0.24 | 96 | 1001.2 |
| 20260504025212 | 43 | 151 | 0.9 | 2.6 | 0.00 | 0.24 | 0.24 | 96 | 1001.3 |
| 20260504024431 | 43 | 165 | 0.9 | 2.6 | 0.00 | 0.24 | 0.24 | 96 | 1001.3 |
| 20260504023931 | 43 | 173 | 1.7 | 2.6 | 0.00 | 0.24 | 0.24 | 96 | 1001.3 |
| 20260504023431 | 43 | 161 | 0.9 | 2.6 | 0.00 | 0.24 | 0.24 | 96 | 1001.3 |
| 20260504022931 | 43 | 145 | 1.7 | 2.6 | 0.00 | 0.24 | 0.24 | 96 | 1001.3 |
| 20260504022659 | 42 | 175 | 0.0 | 0.9 | 0.00 | 0.24 | 0.24 | 96 | 1001.4 |
| 20260504022215 | 42 | 190 | 0.0 | 1.7 | 0.00 | 0.24 | 0.24 | 96 | 1001.4 |
| 20260504021431 | 42 | 190 | 0.0 | 1.7 | 0.00 | 0.24 | 0.24 | 96 | 1001.4 |
| 20260504020931 | 42 | 166 | 0.0 | 2.6 | 0.00 | 0.24 | 0.24 | 95 | 1001.4 |
| 20260504020430 | 42 | 142 | 0.9 | 2.6 | 0.00 | 0.24 | 0.24 | 95 | 1001.4 |
| 20260504015428 | 42 | 183 | 0.9 | 2.6 | 0.00 | 0.24 | 0.24 | 95 | 1001.5 |
| 20260504014926 | 42 | 86 | 0.0 | 2.6 | 0.00 | 0.24 | 0.24 | 95 | 1001.6 |
| 20260504014651 | 42 | 80 | 0.9 | 2.6 | 0.00 | 0.24 | 0.24 | 95 | 1001.7 |
| 20260504013926 | 43 | 89 | 1.7 | 2.6 | 0.00 | 0.24 | 0.24 | 95 | 1001.8 |
| 20260504013423 | 43 | 61 | 1.7 | 1.7 | 0.01 | 0.24 | 0.24 | 95 | 1001.7 |
| 20260504013151 | 43 | 104 | 0.9 | 3.5 | 0.01 | 0.24 | 0.24 | 95 | 1001.5 |
| 20260504012649 | 42 | 172 | 1.7 | 3.5 | 0.03 | 0.24 | 0.24 | 95 | 1001.4 |
| 20260504011923 | 42 | 186 | 1.7 | 4.3 | 0.05 | 0.24 | 0.24 | 95 | 1001.5 |
| 20260504011421 | 42 | 186 | 2.6 | 4.3 | 0.06 | 0.24 | 0.24 | 95 | 1001.5 |
| 20260504010921 | 42 | 151 | 1.7 | 2.6 | 0.09 | 0.24 | 0.24 | 95 | 1001.5 |
| 20260504010645 | 42 | 155 | 0.9 | 2.6 | 0.10 | 0.24 | 0.24 | 94 | 1001.7 |
| 20260504005919 | 42 | 162 | 0.9 | 2.6 | 0.11 | 0.13 | 0.24 | 94 | 1001.8 |
| 20260504005653 | 42 | 158 | 0.9 | 3.5 | 0.13 | 0.13 | 0.24 | 94 | 1001.7 |
| 20260504004929 | 42 | 83 | 1.7 | 3.5 | 0.16 | 0.13 | 0.24 | 94 | 1001.7 |
| 20260504004416 | 42 | 124 | 1.7 | 2.6 | 0.19 | 0.13 | 0.24 | 94 | 1001.8 |
| 20260504003910 | 42 | 182 | 0.9 | 2.6 | 0.23 | 0.13 | 0.24 | 93 | 1001.8 |
| 20260504003410 | 42 | 155 | 0.9 | 1.7 | 0.22 | 0.13 | 0.23 | 93 | 1002.1 |
| 20260504002908 | 42 | 178 | 0.9 | 1.7 | 0.22 | 0.13 | 0.22 | 93 | 1002.1 |
| 20260504002406 | 42 | 138 | 0.0 | 3.5 | 0.20 | 0.13 | 0.21 | 92 | 1002.3 |
| 20260504001920 | 42 | 310 | 1.7 | 3.5 | 0.18 | 0.13 | 0.19 | 91 | 1002.5 |
| 20260504001408 | 42 | 281 | 1.7 | 5.2 | 0.16 | 0.13 | 0.17 | 91 | 1002.4 |
| 20260504000904 | 42 | 334 | 1.7 | 9.6 | 0.14 | 0.13 | 0.15 | 90 | 1002.6 |
| 20260504000404 | 43 | 25 | 1.7 | 9.6 | 0.13 | 0.13 | 0.13 | 88 | 1002.6 |
| 20260503235904 | 44 | 25 | 2.6 | 10.4 | 0.12 | 0.01 | 0.12 | 87 | 1002.5 |
| 20260503235404 | 46 | 323 | 1.7 | 13.9 | 0.10 | 0.01 | 0.10 | 87 | 1002.3 |
| 20260503234913 | 47 | 2 | 4.3 | 13.9 | 0.07 | 0.01 | 0.08 | 85 | 1002.2 |
| 20260503234358 | 49 | 289 | 7.8 | 12.2 | 0.03 | 0.01 | 0.03 | 80 | 1002.1 |
| 20260503233858 | 52 | 344 | 3.5 | 12.2 | 0.00 | 0.01 | 0.01 | 71 | 1001.8 |
| 20260503233621 | 58 | 11 | 6.1 | 12.2 | 0.00 | 0.01 | 0.01 | 64 | 1001.1 |
| 20260503232352 | 59 | 259 | 3.5 | 10.4 | 0.00 | 0.01 | 0.01 | 62 | 1000.3 |
| 20260503231856 | 59 | 271 | 2.6 | 10.4 | 0.00 | 0.01 | 0.01 | 62 | 1000.3 |
| 20260503231351 | 59 | 250 | 4.3 | 6.1 | 0.00 | 0.01 | 0.01 | 62 | 1000.1 |
| 20260503230852 | 59 | 274 | 2.6 | 7.8 | 0.00 | 0.01 | 0.01 | 62 | 1000.2 |
| 20260503230352 | 59 | 250 | 3.5 | 7.8 | 0.00 | 0.01 | 0.01 | 62 | 1000.2 |
| 20260503225852 | 59 | 238 | 3.5 | 6.1 | 0.00 | 0.01 | 0.01 | 62 | 1000.2 |
| 20260503225352 | 59 | 240 | 0.9 | 7.8 | 0.00 | 0.01 | 0.01 | 63 | 1000.3 |
| 20260503224847 | 59 | 245 | 4.3 | 10.4 | 0.00 | 0.01 | 0.01 | 62 | 1000.5 |
| 20260503224347 | 59 | 262 | 5.2 | 11.3 | 0.00 | 0.01 | 0.01 | 63 | 1000.6 |
| 20260503223847 | 59 | 213 | 5.2 | 11.3 | 0.00 | 0.01 | 0.01 | 62 | 1000.6 |
| 20260503223347 | 59 | 281 | 4.3 | 10.4 | 0.00 | 0.01 | 0.01 | 63 | 1000.6 |
| 20260503222846 | 59 | 262 | 5.2 | 11.3 | 0.00 | 0.01 | 0.01 | 62 | 1000.7 |
| 20260503222616 | 59 | 288 | 6.1 | 14.8 | 0.00 | 0.01 | 0.01 | 63 | 1000.8 |
| 20260503222117 | 59 | 268 | 9.6 | 14.8 | 0.00 | 0.01 | 0.01 | 62 | 1000.8 |
| 20260503221345 | 59 | 245 | 7.8 | 11.3 | 0.00 | 0.01 | 0.01 | 63 | 1000.9 |
| 20260503220839 | 59 | 237 | 5.2 | 13.9 | 0.00 | 0.01 | 0.01 | 63 | 1000.9 |
| 20260503220337 | 59 | 226 | 7.8 | 16.5 | 0.00 | 0.01 | 0.01 | 64 | 1000.9 |
| 20260503215833 | 58 | 238 | 8.7 | 16.5 | 0.00 | 0.01 | 0.01 | 64 | 1001.0 |
| 20260503215332 | 58 | 227 | 7.8 | 14.8 | 0.00 | 0.01 | 0.01 | 63 | 1001.0 |
| 20260503215101 | 58 | 261 | 7.8 | 15.6 | 0.00 | 0.01 | 0.01 | 63 | 1001.1 |
| 20260503214332 | 59 | 264 | 9.6 | 15.6 | 0.00 | 0.01 | 0.01 | 62 | 1001.1 |
| 20260503213834 | 59 | 231 | 9.6 | 15.6 | 0.00 | 0.01 | 0.01 | 64 | 1001.1 |
| 20260503213325 | 58 | 220 | 7.0 | 14.8 | 0.00 | 0.01 | 0.01 | 64 | 1001.0 |
| 20260503212823 | 58 | 219 | 5.2 | 15.6 | 0.00 | 0.01 | 0.01 | 63 | 1001.1 |
| 20260503212332 | 58 | 251 | 9.6 | 15.6 | 0.00 | 0.01 | 0.01 | 64 | 1001.3 |
| 20260503210824 | 47 | 340 | 0.0 | 6.1 | 0.00 | 0.01 | 0.01 | 84 | 1001.3 |
| 20260503210323 | 46 | 62 | 2.6 | 5.2 | 0.00 | 0.01 | 0.01 | 88 | 1001.4 |
| 20260503205821 | 45 | 121 | 3.5 | 7.8 | 0.00 | 0.01 | 0.01 | 87 | 1001.5 |
| 20260503205550 | 44 | 95 | 1.7 | 7.8 | 0.00 | 0.01 | 0.01 | 87 | 1001.8 |
| 20260503204821 | 44 | 79 | 3.5 | 8.7 | 0.00 | 0.01 | 0.01 | 86 | 1001.8 |
| 20260503204323 | 44 | 90 | 5.2 | 8.7 | 0.00 | 0.01 | 0.01 | 86 | 1001.8 |
| 20260503203822 | 44 | 75 | 4.3 | 11.3 | 0.00 | 0.01 | 0.01 | 85 | 1001.8 |
| 20260503203320 | 44 | 106 | 3.5 | 11.3 | 0.00 | 0.01 | 0.01 | 85 | 1001.8 |
| 20260503202821 | 44 | 65 | 5.2 | 9.6 | 0.00 | 0.01 | 0.01 | 85 | 1001.9 |
| 20260503202545 | 44 | 110 | 4.3 | 9.6 | 0.00 | 0.01 | 0.01 | 85 | 1002.1 |
| 20260503202048 | 44 | 87 | 4.3 | 8.7 | 0.00 | 0.01 | 0.01 | 83 | 1002.0 |
| 20260503201547 | 45 | 87 | 5.2 | 8.7 | 0.00 | 0.01 | 0.01 | 83 | 1002.1 |
| 20260503200820 | 46 | 80 | 5.2 | 8.7 | 0.00 | 0.01 | 0.01 | 81 | 1002.1 |
| 20260503200320 | 47 | 73 | 3.5 | 7.8 | 0.00 | 0.01 | 0.01 | 80 | 1002.2 |
| 20260503195819 | 48 | 82 | 3.5 | 7.8 | 0.00 | 0.01 | 0.01 | 82 | 1002.3 |
| 20260503195320 | 48 | 97 | 4.3 | 7.8 | 0.00 | 0.01 | 0.01 | 83 | 1002.4 |
| 20260503195050 | 48 | 56 | 3.5 | 5.2 | 0.00 | 0.01 | 0.01 | 83 | 1002.5 |
| 20260503194322 | 48 | 75 | 1.7 | 5.2 | 0.00 | 0.01 | 0.01 | 85 | 1002.6 |
| 20260503193820 | 47 | 95 | 0.9 | 7.8 | 0.00 | 0.01 | 0.01 | 85 | 1002.5 |
| 20260503193550 | 47 | 76 | 4.3 | 8.7 | 0.00 | 0.01 | 0.01 | 86 | 1002.7 |
| 20260503193044 | 46 | 100 | 5.2 | 8.7 | 0.00 | 0.01 | 0.01 | 85 | 1002.8 |
| 20260503192324 | 46 | 89 | 5.2 | 8.7 | 0.00 | 0.01 | 0.01 | 84 | 1003.0 |
| 20260503191820 | 47 | 85 | 4.3 | 7.8 | 0.00 | 0.01 | 0.01 | 86 | 1003.1 |
| 20260503191320 | 46 | 44 | 3.5 | 9.6 | 0.00 | 0.01 | 0.01 | 85 | 1003.1 |
| 20260503190815 | 46 | 109 | 3.5 | 9.6 | 0.00 | 0.01 | 0.01 | 84 | 1003.1 |
| 20260503190317 | 46 | 96 | 5.2 | 7.8 | 0.00 | 0.01 | 0.01 | 83 | 1003.3 |
| 20260503185809 | 46 | 41 | 4.3 | 6.1 | 0.00 | 0.01 | 0.01 | 82 | 1003.3 |
| 20260503185320 | 47 | 103 | 5.2 | 8.7 | 0.00 | 0.01 | 0.01 | 80 | 1003.3 |
| 20260503184805 | 48 | 137 | 3.5 | 8.7 | 0.00 | 0.01 | 0.01 | 80 | 1003.3 |
| 20260503184759 | 48 | 93 | 4.3 | 7.8 | 0.00 | 0.01 | 0.01 | 80 | 1003.3 |
| 20260503183805 | 49 | 80 | 3.5 | 6.1 | 0.00 | 0.01 | 0.01 | 82 | 1003.3 |
| 20260503183528 | 49 | 106 | 4.3 | 6.1 | 0.00 | 0.01 | 0.01 | 81 | 1003.4 |
| 20260503183030 | 50 | 95 | 2.6 | 6.1 | 0.00 | 0.01 | 0.01 | 83 | 1003.5 |
| 20260503182306 | 50 | 141 | 3.5 | 6.1 | 0.00 | 0.01 | 0.01 | 84 | 1003.7 |
| 20260503181308 | 48 | 138 | 3.5 | 5.2 | 0.00 | 0.01 | 0.01 | 87 | 1003.9 |
| 20260503180804 | 47 | 188 | 2.6 | 5.2 | 0.00 | 0.01 | 0.01 | 87 | 1004.0 |
| 20260503180332 | 46 | 137 | 0.9 | 3.5 | 0.00 | 0.01 | 0.01 | 89 | 1004.2 |
| 20260503175804 | 45 | 147 | 1.7 | 3.5 | 0.00 | 0.01 | 0.01 | 87 | 1004.2 |
| 20260503175306 | 45 | 142 | 1.7 | 5.2 | 0.00 | 0.01 | 0.01 | 88 | 1004.4 |
| 20260503174919 | 44 | 147 | 2.6 | 5.2 | 0.00 | 0.01 | 0.01 | 89 | 1004.4 |
| 20260503174304 | 44 | 144 | 3.5 | 5.2 | 0.00 | 0.01 | 0.01 | 90 | 1004.4 |
| 20260503174030 | 43 | 135 | 1.7 | 4.3 | 0.00 | 0.01 | 0.01 | 91 | 1004.4 |
| 20260503173303 | 43 | 100 | 2.6 | 3.5 | 0.00 | 0.01 | 0.01 | 91 | 1004.5 |
| 20260503173036 | 42 | 89 | 1.7 | 3.5 | 0.00 | 0.01 | 0.01 | 91 | 1004.5 |
| 20260503172305 | 42 | 121 | 2.6 | 3.5 | 0.00 | 0.01 | 0.01 | 90 | 1004.6 |
| 20260503171805 | 42 | 99 | 0.9 | 2.6 | 0.00 | 0.01 | 0.01 | 90 | 1004.8 |
| 20260503171303 | 41 | 96 | 0.0 | 3.5 | 0.01 | 0.01 | 0.01 | 90 | 1004.8 |
| 20260503171025 | 41 | 128 | 1.7 | 3.5 | 0.01 | 0.01 | 0.01 | 90 | 1004.9 |
| 20260503170301 | 40 | 31 | 0.0 | 3.5 | 0.01 | 0.01 | 0.01 | 89 | 1005.0 |
| 20260503150741 | 42 | 161 | 0.9 | 4.3 | 0.00 | 0.00 | 0.00 | 80 | 1005.5 |
| 20260503150514 | 43 | 102 | 2.6 | 4.3 | 0.00 | 0.00 | 0.00 | 80 | 1005.4 |
| 20260503140214 | 44 | 188 | 0.9 | 3.5 | 0.00 | 0.00 | 0.00 | 71 | 1006.0 |
| 20260503131030 | 43 | 275 | 2.6 | 6.1 | 0.00 | 0.00 | 0.00 | 61 | 1006.6 |
| 20260503130528 | 43 | 243 | 3.5 | 7.8 | 0.00 | 0.00 | 0.00 | 61 | 1006.7 |
| 20260503110510 | 38 | 203 | 2.6 | 6.1 | 0.00 | 0.00 | 0.00 | 61 | 1007.1 |
| 20260503090511 | 35 | 231 | 4.3 | 6.1 | 0.00 | 0.00 | 0.00 | 64 | 1008.1 |
| 20260503081502 | 35 | 227 | 5.2 | 7.8 | 0.00 | 0.00 | 0.00 | 64 | 1008.8 |
| 20260503080959 | 35 | 228 | 4.3 | 7.8 | 0.00 | 0.00 | 0.00 | 64 | 1008.9 |
| 20260503080459 | 35 | 238 | 4.3 | 7.8 | 0.00 | 0.00 | 0.00 | 64 | 1009.0 |
| 20260503072458 | 35 | 188 | 3.5 | 5.2 | 0.00 | 0.00 | 0.00 | 68 | 1009.2 |
| 20260503071957 | 34 | 243 | 3.5 | 5.2 | 0.00 | 0.00 | 0.00 | 68 | 1009.2 |
| 20260503071722 | 34 | 244 | 3.5 | 4.3 | 0.00 | 0.00 | 0.00 | 69 | 1009.4 |
| 20260503070957 | 34 | 244 | 3.5 | 5.2 | 0.00 | 0.00 | 0.00 | 70 | 1009.4 |
| 20260503070457 | 34 | 237 | 3.5 | 5.2 | 0.00 | 0.00 | 0.00 | 70 | 1009.6 |